This is the latest recevied weather packets stored in our database for station/object AA7VG. If no packets are shown the sender has not sent any weather packets the latest 10 day(s).
| Time | Temp. | Humidity | Pressure | Rain* | Wind** | Luminosity | Snow |
|---|---|---|---|---|---|---|---|
| 1778017932 | 9.44° C | 32% | 1014.7 hPa | 0 mm | - | - | - |
| 1778017629 | 9.44° C | 33% | 1015 hPa | 0 mm | - | - | - |
| 1778017326 | 9.44° C | 34% | 1014.7 hPa | 0 mm | - | - | - |
| 1778017024 | 8.89° C | 36% | 1015 hPa | 0 mm | - | - | - |
| 1778016721 | 8.89° C | 35% | 1015 hPa | 0 mm | - | - | - |
| 1778016416 | 9.44° C | 36% | 1015.2 hPa | 0 mm | - | - | - |
| 1778016114 | 10.56° C | 33% | 1015.1 hPa | 0 mm | - | - | - |
| 1778015811 | 10° C | 33% | 1015 hPa | 0 mm | - | - | - |
| 1778015508 | 10.56° C | 32% | 1015 hPa | 0 mm | - | - | - |
| 1778015205 | 10.56° C | 33% | 1015.2 hPa | 0 mm | - | - | - |
| 1778014901 | 10.56° C | 34% | 1015.2 hPa | 0 mm | - | - | - |
| 1778014599 | 9.44° C | 33% | 1015.3 hPa | 0 mm | - | - | - |
| 1778014297 | 10° C | 32% | 1015.3 hPa | 0 mm | - | - | - |
| 1778013993 | 11.11° C | 32% | 1015.1 hPa | 0 mm | - | - | - |
| 1778013692 | 11.11° C | 32% | 1015.1 hPa | 0 mm | - | - | - |
| 1778013388 | 10.56° C | 33% | 1015.1 hPa | 0 mm | - | - | - |
| 1778013085 | 9.44° C | 34% | 1015.1 hPa | 0 mm | - | - | - |
| 1778012780 | 10.56° C | 32% | 1015.2 hPa | 0 mm | - | - | - |
| 1778012477 | 11.11° C | 33% | 1015.3 hPa | 0 mm | - | - | - |
| 1778012174 | 11.67° C | 31% | 1015.3 hPa | 0 mm | - | - | - |
| 1778011871 | 11.11° C | 29% | 1015.2 hPa | 0 mm | - | - | - |
| 1778011569 | 10° C | 34% | 1015.4 hPa | 0 mm | - | - | - |
| 1778011266 | 9.44° C | 33% | 1015.3 hPa | 0 mm | - | - | - |
| 1778010962 | 9.44° C | 34% | 1015.4 hPa | 0 mm | - | - | - |
| 1778010660 | 9.44° C | 34% | 1015.3 hPa | 0 mm | - | - | - |
* Rain latest hour (hover to see other rain measurements)
** Current wind speed in m/s (hover to see current wind gust speed)